Year,Month,Day,Hour,Minute,Value (Times are PST for windspeed in km/hr)
2015,12,10,00,00,6.20
2015,12,10,00,01,6.60
2015,12,10,00,02,9.10
2015,12,10,00,03,8.80
2015,12,10,00,04,10.00
2015,12,10,00,05,7.50
2015,12,10,00,06,7.20
2015,12,10,00,07,11.50
2015,12,10,00,08,6.70
2015,12,10,00,09,9.20
2015,12,10,00,10,3.60
2015,12,10,00,11,7.80
2015,12,10,00,12,7.20
2015,12,10,00,13,9.70
2015,12,10,00,14,11.00
2015,12,10,00,15,5.20
2015,12,10,00,16,8.40
2015,12,10,00,17,6.50
2015,12,10,00,18,8.80
2015,12,10,00,19,19.80
2015,12,10,00,20,14.50
2015,12,10,00,21,15.30
2015,12,10,00,22,11.90
2015,12,10,00,23,16.60
2015,12,10,00,24,14.50
2015,12,10,00,25,12.50
2015,12,10,00,26,13.10
2015,12,10,00,27,11.30
2015,12,10,00,28,6.40
2015,12,10,00,29,7.10
2015,12,10,00,30,9.20
2015,12,10,00,31,10.90
2015,12,10,00,32,10.70
2015,12,10,00,33,11.70
2015,12,10,00,34,7.90
2015,12,10,00,35,7.90
2015,12,10,00,36,4.50
2015,12,10,00,37,6.30
2015,12,10,00,38,11.80
2015,12,10,00,39,12.80
2015,12,10,00,40,10.90
2015,12,10,00,41,10.20
2015,12,10,00,42,6.00
2015,12,10,00,43,6.80
2015,12,10,00,44,5.10
2015,12,10,00,45,3.60
2015,12,10,00,46,9.20
2015,12,10,00,47,10.00
2015,12,10,00,48,8.50
2015,12,10,00,49,7.60
2015,12,10,00,50,3.20
2015,12,10,00,51,4.10
2015,12,10,00,52,8.90
2015,12,10,00,53,7.90
2015,12,10,00,54,3.50
2015,12,10,00,55,6.90
2015,12,10,00,56,4.50
2015,12,10,00,57,4.20
2015,12,10,00,58,4.70
2015,12,10,00,59,3.80
2015,12,10,01,00,5.20
2015,12,10,01,01,7.70
2015,12,10,01,02,3.70
2015,12,10,01,03,3.70
2015,12,10,01,04,2.40
2015,12,10,01,05,8.20
2015,12,10,01,06,3.40
2015,12,10,01,07,4.10
2015,12,10,01,08,4.10
2015,12,10,01,09,2.00
2015,12,10,01,10,1.00
2015,12,10,01,11,3.30
2015,12,10,01,12,4.80
2015,12,10,01,13,5.70
2015,12,10,01,14,2.60
2015,12,10,01,15,3.60
2015,12,10,01,16,3.50
2015,12,10,01,17,3.30
2015,12,10,01,18,4.40
2015,12,10,01,19,2.10
2015,12,10,01,20,2.70
2015,12,10,01,21,4.90
2015,12,10,01,22,4.40
2015,12,10,01,23,4.80
2015,12,10,01,24,3.60
2015,12,10,01,25,5.00
2015,12,10,01,26,9.20
2015,12,10,01,27,7.20
2015,12,10,01,28,4.00
2015,12,10,01,29,2.90
2015,12,10,01,30,5.80
2015,12,10,01,31,4.70
2015,12,10,01,32,4.70
2015,12,10,01,33,4.60
2015,12,10,01,34,5.00
2015,12,10,01,35,4.90
2015,12,10,01,36,4.90
2015,12,10,01,37,5.70
2015,12,10,01,38,8.80
2015,12,10,01,39,6.10
2015,12,10,01,40,7.90
2015,12,10,01,41,5.10
2015,12,10,01,42,4.50
2015,12,10,01,43,11.60
2015,12,10,01,44,5.70
2015,12,10,01,45,2.90
2015,12,10,01,46,3.20
2015,12,10,01,47,3.60
2015,12,10,01,48,7.20
2015,12,10,01,49,2.70
2015,12,10,01,50,3.00
2015,12,10,01,51,4.60
2015,12,10,01,52,7.00
2015,12,10,01,53,7.40
2015,12,10,01,54,6.40
2015,12,10,01,55,3.50
2015,12,10,01,56,3.60
2015,12,10,01,57,2.20
2015,12,10,01,58,7.90
2015,12,10,01,59,4.40
2015,12,10,02,00,2.90
2015,12,10,02,01,3.80
2015,12,10,02,02,3.30
2015,12,10,02,03,4.10
2015,12,10,02,04,4.10
2015,12,10,02,05,5.10
2015,12,10,02,06,5.00
2015,12,10,02,07,4.90
2015,12,10,02,08,1.70
2015,12,10,02,09,3.70
2015,12,10,02,10,3.00
2015,12,10,02,11,1.80
2015,12,10,02,12,2.70
2015,12,10,02,13,2.70
2015,12,10,02,14,3.20
2015,12,10,02,15,1.70
2015,12,10,02,16,1.00
2015,12,10,02,17,1.70
2015,12,10,02,18,3.60
2015,12,10,02,19,2.70
2015,12,10,02,20,2.40
2015,12,10,02,21,1.30
2015,12,10,02,22,6.40
2015,12,10,02,23,3.00
2015,12,10,02,24,0.40
2015,12,10,02,25,0.60
2015,12,10,02,26,0.20
2015,12,10,02,27,1.10
2015,12,10,02,28,1.90
2015,12,10,02,29,1.50
2015,12,10,02,30,2.40
2015,12,10,02,31,1.10
2015,12,10,02,32,1.40
2015,12,10,02,33,1.00
2015,12,10,02,34,1.10
2015,12,10,02,35,1.30
2015,12,10,02,36,0.30
2015,12,10,02,37,0.70
2015,12,10,02,38,0.20
2015,12,10,02,39,1.20
2015,12,10,02,40,1.90
2015,12,10,02,41,0.90
2015,12,10,02,42,1.70
2015,12,10,02,43,0.10
2015,12,10,02,44,0.00
2015,12,10,02,45,0.30
2015,12,10,02,46,0.00
2015,12,10,02,47,0.00
2015,12,10,02,48,0.00
2015,12,10,02,49,0.20
2015,12,10,02,50,0.00
2015,12,10,02,51,0.00
2015,12,10,02,52,0.00
2015,12,10,02,53,0.00
2015,12,10,02,54,0.00
2015,12,10,02,55,0.00
2015,12,10,02,56,0.00
2015,12,10,02,57,0.30
2015,12,10,02,58,0.00
2015,12,10,02,59,0.10
2015,12,10,03,00,0.80
2015,12,10,03,01,1.00
2015,12,10,03,02,3.80
2015,12,10,03,03,3.30
2015,12,10,03,04,3.00
2015,12,10,03,05,1.60
2015,12,10,03,06,0.50
2015,12,10,03,07,0.60
2015,12,10,03,08,1.00
2015,12,10,03,09,0.10
2015,12,10,03,10,0.30
2015,12,10,03,11,1.40
2015,12,10,03,12,1.60
2015,12,10,03,13,5.60
2015,12,10,03,14,2.60
2015,12,10,03,15,1.60
2015,12,10,03,16,2.70
2015,12,10,03,17,2.30
2015,12,10,03,18,1.70
2015,12,10,03,19,2.30
2015,12,10,03,20,1.10
2015,12,10,03,21,1.10
2015,12,10,03,22,1.80
2015,12,10,03,23,0.70
2015,12,10,03,24,1.30
2015,12,10,03,25,1.60
2015,12,10,03,26,0.50
2015,12,10,03,27,0.60
2015,12,10,03,28,0.00
2015,12,10,03,29,1.50
2015,12,10,03,30,3.50
2015,12,10,03,31,3.80
2015,12,10,03,32,4.20
2015,12,10,03,33,3.60
2015,12,10,03,34,2.10
2015,12,10,03,35,3.00
2015,12,10,03,36,2.40
2015,12,10,03,37,5.50
2015,12,10,03,38,1.90
2015,12,10,03,39,1.00
2015,12,10,03,40,0.70
2015,12,10,03,41,0.30
2015,12,10,03,42,3.50
2015,12,10,03,43,3.60
2015,12,10,03,44,0.90
2015,12,10,03,45,0.80
2015,12,10,03,46,2.40
2015,12,10,03,47,3.20
2015,12,10,03,48,2.80
2015,12,10,03,49,4.10
2015,12,10,03,50,2.10
2015,12,10,03,51,0.70
2015,12,10,03,52,0.00
2015,12,10,03,53,0.60
2015,12,10,03,54,1.30
2015,12,10,03,55,0.30
2015,12,10,03,56,0.00
2015,12,10,03,57,0.00
2015,12,10,03,58,0.80
2015,12,10,03,59,1.60
2015,12,10,04,00,1.40
2015,12,10,04,01,1.40
2015,12,10,04,02,0.00
2015,12,10,04,03,0.40
2015,12,10,04,04,0.00
2015,12,10,04,05,0.30
2015,12,10,04,06,0.00
2015,12,10,04,07,0.00
2015,12,10,04,08,0.00
2015,12,10,04,09,0.80
2015,12,10,04,10,2.40
2015,12,10,04,11,1.00
2015,12,10,04,12,1.60
2015,12,10,04,13,2.90
2015,12,10,04,14,1.40
2015,12,10,04,15,3.40
2015,12,10,04,16,2.90
2015,12,10,04,17,1.40
2015,12,10,04,18,0.80
2015,12,10,04,19,1.70
2015,12,10,04,20,2.60
2015,12,10,04,21,2.80
2015,12,10,04,22,1.60
2015,12,10,04,23,3.90
2015,12,10,04,24,5.50
2015,12,10,04,25,4.10
2015,12,10,04,26,2.80
2015,12,10,04,27,2.00
2015,12,10,04,28,6.30
2015,12,10,04,29,3.50
2015,12,10,04,30,2.10
2015,12,10,04,31,4.80
2015,12,10,04,32,5.50
2015,12,10,04,33,4.20
2015,12,10,04,34,2.90
2015,12,10,04,35,4.00
2015,12,10,04,36,5.50
2015,12,10,04,37,3.20
2015,12,10,04,38,2.60
2015,12,10,04,39,5.70
2015,12,10,04,40,3.00
2015,12,10,04,41,2.20
2015,12,10,04,42,2.10
2015,12,10,04,43,3.20
2015,12,10,04,44,3.20
2015,12,10,04,45,4.10
2015,12,10,04,46,1.90
2015,12,10,04,47,4.00
2015,12,10,04,48,5.30
2015,12,10,04,49,5.70
2015,12,10,04,50,6.90
2015,12,10,04,51,2.60
2015,12,10,04,52,3.30
2015,12,10,04,53,4.20
2015,12,10,04,54,7.70
2015,12,10,04,55,7.50
2015,12,10,04,56,12.50
2015,12,10,04,57,15.00
2015,12,10,04,58,10.80
2015,12,10,04,59,10.60
2015,12,10,05,00,8.20
2015,12,10,05,01,4.20
2015,12,10,05,02,4.30
2015,12,10,05,03,10.70
2015,12,10,05,04,8.20
2015,12,10,05,05,11.80
2015,12,10,05,06,6.30
2015,12,10,05,07,8.30
2015,12,10,05,08,3.30
2015,12,10,05,09,6.20
2015,12,10,05,10,6.60
2015,12,10,05,11,15.00
2015,12,10,05,12,15.20
2015,12,10,05,13,16.30
2015,12,10,05,14,14.30
2015,12,10,05,15,17.10
2015,12,10,05,16,14.20
2015,12,10,05,17,10.70
2015,12,10,05,18,8.20
2015,12,10,05,19,15.80
2015,12,10,05,20,11.00
2015,12,10,05,21,10.00
2015,12,10,05,22,18.50
2015,12,10,05,23,13.10
2015,12,10,05,24,12.20
2015,12,10,05,25,15.40
2015,12,10,05,26,12.40
2015,12,10,05,27,16.20
2015,12,10,05,28,9.70
2015,12,10,05,29,14.80
2015,12,10,05,30,11.70
2015,12,10,05,31,13.40
2015,12,10,05,32,13.30
2015,12,10,05,33,16.00
2015,12,10,05,34,13.70
2015,12,10,05,35,12.90
2015,12,10,05,36,13.80
2015,12,10,05,37,13.10
2015,12,10,05,38,8.40
2015,12,10,05,39,10.40
2015,12,10,05,40,9.20
2015,12,10,05,41,7.00
2015,12,10,05,42,8.90
2015,12,10,05,43,19.60
2015,12,10,05,44,17.90
2015,12,10,05,45,21.70
2015,12,10,05,46,21.80
2015,12,10,05,47,11.80
2015,12,10,05,48,10.10
2015,12,10,05,49,14.40
2015,12,10,05,50,19.20
2015,12,10,05,51,18.80
2015,12,10,05,52,26.20
2015,12,10,05,53,22.70
2015,12,10,05,54,16.80
2015,12,10,05,55,20.50
2015,12,10,05,56,15.80
2015,12,10,05,57,19.30
2015,12,10,05,58,12.30
2015,12,10,05,59,19.40
2015,12,10,06,00,16.60
2015,12,10,06,01,15.30
2015,12,10,06,02,16.30
2015,12,10,06,03,15.20
2015,12,10,06,04,11.40
2015,12,10,06,05,19.90
2015,12,10,06,06,17.30
2015,12,10,06,07,14.80
2015,12,10,06,08,11.70
2015,12,10,06,09,9.20
2015,12,10,06,10,15.80
2015,12,10,06,11,16.80
2015,12,10,06,12,14.80
2015,12,10,06,13,17.60
2015,12,10,06,14,10.00
2015,12,10,06,15,9.70
2015,12,10,06,16,11.30
2015,12,10,06,17,16.30
2015,12,10,06,18,14.40
2015,12,10,06,19,18.30
2015,12,10,06,20,18.90
2015,12,10,06,21,13.70
2015,12,10,06,22,11.50
2015,12,10,06,23,9.70
2015,12,10,06,24,15.00
2015,12,10,06,25,14.30
2015,12,10,06,26,13.30
2015,12,10,06,27,13.30
2015,12,10,06,28,12.30
2015,12,10,06,29,17.20
2015,12,10,06,30,15.60
2015,12,10,06,31,20.30
2015,12,10,06,32,17.00
2015,12,10,06,33,15.80
2015,12,10,06,34,19.70
2015,12,10,06,35,14.80
2015,12,10,06,36,15.80
2015,12,10,06,37,16.00
2015,12,10,06,38,20.00
2015,12,10,06,39,9.60
2015,12,10,06,40,17.10
2015,12,10,06,41,20.30
2015,12,10,06,42,15.80
2015,12,10,06,43,19.40
2015,12,10,06,44,15.60
2015,12,10,06,45,19.30
2015,12,10,06,46,13.80
2015,12,10,06,47,17.90
2015,12,10,06,48,12.50
2015,12,10,06,49,14.50
2015,12,10,06,50,8.20
2015,12,10,06,51,14.60
2015,12,10,06,52,22.10
2015,12,10,06,53,8.00
2015,12,10,06,54,11.00
2015,12,10,06,55,21.00
2015,12,10,06,56,16.00
2015,12,10,06,57,16.30
2015,12,10,06,58,17.70
2015,12,10,06,59,14.60
2015,12,10,07,00,16.10
2015,12,10,07,01,16.50
2015,12,10,07,02,11.30
2015,12,10,07,03,12.90
2015,12,10,07,04,8.70
2015,12,10,07,05,13.90
2015,12,10,07,06,13.70
2015,12,10,07,07,15.30
2015,12,10,07,08,10.80
2015,12,10,07,09,13.30
2015,12,10,07,10,14.20
2015,12,10,07,11,18.40
2015,12,10,07,12,11.30
2015,12,10,07,13,12.20
2015,12,10,07,14,12.80
2015,12,10,07,15,13.80
2015,12,10,07,16,12.30
2015,12,10,07,17,18.10
2015,12,10,07,18,12.60
2015,12,10,07,19,14.40
2015,12,10,07,20,12.60
2015,12,10,07,21,5.70
2015,12,10,07,22,5.20
2015,12,10,07,23,4.80
2015,12,10,07,24,14.40
2015,12,10,07,25,9.00
2015,12,10,07,26,8.90
2015,12,10,07,27,14.80
2015,12,10,07,28,18.50
2015,12,10,07,29,11.90
2015,12,10,07,30,12.60
2015,12,10,07,31,9.50
2015,12,10,07,32,11.20
2015,12,10,07,33,14.70
2015,12,10,07,34,11.60
2015,12,10,07,35,15.80
2015,12,10,07,36,8.30
2015,12,10,07,37,10.80
2015,12,10,07,38,7.20
2015,12,10,07,39,4.70
2015,12,10,07,40,15.90
2015,12,10,07,41,13.90
2015,12,10,07,42,9.80
2015,12,10,07,43,11.30
2015,12,10,07,44,6.00
2015,12,10,07,45,7.40
2015,12,10,07,46,6.60
2015,12,10,07,47,6.90
2015,12,10,07,48,6.10
2015,12,10,07,49,8.20
2015,12,10,07,50,11.30
2015,12,10,07,51,7.10
2015,12,10,07,52,7.10
2015,12,10,07,53,5.00
2015,12,10,07,54,8.80
2015,12,10,07,55,5.40
2015,12,10,07,56,4.20
2015,12,10,07,57,2.90
2015,12,10,07,58,4.20
2015,12,10,07,59,3.30
2015,12,10,08,00,4.60
2015,12,10,08,01,6.40
2015,12,10,08,02,6.60
2015,12,10,08,03,6.90
2015,12,10,08,04,4.60
2015,12,10,08,05,7.70
2015,12,10,08,06,8.00
2015,12,10,08,07,6.30
2015,12,10,08,08,10.10
2015,12,10,08,09,4.00
2015,12,10,08,10,7.60
2015,12,10,08,11,6.70
2015,12,10,08,12,3.30
2015,12,10,08,13,4.90
2015,12,10,08,14,4.60
2015,12,10,08,15,6.70
2015,12,10,08,16,5.80
2015,12,10,08,17,4.80
2015,12,10,08,18,2.10
2015,12,10,08,19,5.80
2015,12,10,08,20,7.70
2015,12,10,08,21,8.20
2015,12,10,08,22,9.70
2015,12,10,08,23,9.50
2015,12,10,08,24,5.50
2015,12,10,08,25,7.50
2015,12,10,08,26,12.30
2015,12,10,08,27,4.80
2015,12,10,08,28,5.20
2015,12,10,08,29,4.00
2015,12,10,08,30,11.40
2015,12,10,08,31,8.30
2015,12,10,08,32,10.50
2015,12,10,08,33,14.20
2015,12,10,08,34,11.10
2015,12,10,08,35,11.00
2015,12,10,08,36,7.00
2015,12,10,08,37,8.00
2015,12,10,08,38,15.70
2015,12,10,08,39,10.40
2015,12,10,08,40,5.90
2015,12,10,08,41,11.70
2015,12,10,08,42,10.50
2015,12,10,08,43,8.10
2015,12,10,08,44,7.60
2015,12,10,08,45,7.00
2015,12,10,08,46,7.20
2015,12,10,08,47,11.40
2015,12,10,08,48,11.90
2015,12,10,08,49,14.70
2015,12,10,08,50,7.20
2015,12,10,08,51,9.40
2015,12,10,08,52,9.70
2015,12,10,08,53,11.40
2015,12,10,08,54,7.60
2015,12,10,08,55,7.20
2015,12,10,08,56,8.60
2015,12,10,08,57,14.20
2015,12,10,08,58,10.80
2015,12,10,08,59,9.70
2015,12,10,09,00,13.50
2015,12,10,09,01,10.80
2015,12,10,09,02,16.50
2015,12,10,09,03,12.40
2015,12,10,09,04,12.30
2015,12,10,09,05,13.70
2015,12,10,09,06,12.80
2015,12,10,09,07,15.10
2015,12,10,09,08,13.80
2015,12,10,09,09,17.60
2015,12,10,09,10,14.70
2015,12,10,09,11,14.40
2015,12,10,09,12,18.40
2015,12,10,09,13,17.00
2015,12,10,09,14,11.50
2015,12,10,09,15,15.80
2015,12,10,09,16,11.50
2015,12,10,09,17,10.10
2015,12,10,09,18,12.30
2015,12,10,09,19,17.40
2015,12,10,09,20,14.00
2015,12,10,09,21,9.80
2015,12,10,09,22,15.10
2015,12,10,09,23,14.50
2015,12,10,09,24,11.20
2015,12,10,09,25,14.50
2015,12,10,09,26,14.60
2015,12,10,09,27,14.70
2015,12,10,09,28,9.50
2015,12,10,09,29,19.60
2015,12,10,09,30,17.60
2015,12,10,09,31,13.70
2015,12,10,09,32,15.60
2015,12,10,09,33,15.50
2015,12,10,09,34,11.80
2015,12,10,09,35,9.60
2015,12,10,09,36,13.90
2015,12,10,09,37,14.00
2015,12,10,09,38,20.30
2015,12,10,09,39,19.40
2015,12,10,09,40,15.80
2015,12,10,09,41,14.50
2015,12,10,09,42,13.80
2015,12,10,09,43,13.20
2015,12,10,09,44,19.10
2015,12,10,09,45,10.60
2015,12,10,09,46,13.40
2015,12,10,09,47,16.50
2015,12,10,09,48,20.70
2015,12,10,09,49,10.30
2015,12,10,09,50,13.80
2015,12,10,09,51,13.80
2015,12,10,09,52,13.80
2015,12,10,09,53,16.60
2015,12,10,09,54,12.80
2015,12,10,09,55,9.70
2015,12,10,09,56,10.00
2015,12,10,09,57,9.70
2015,12,10,09,58,10.70
2015,12,10,09,59,21.50
2015,12,10,10,00,21.50
2015,12,10,10,01,11.10
2015,12,10,10,02,12.20
2015,12,10,10,03,16.20
2015,12,10,10,04,11.40
2015,12,10,10,05,14.50
2015,12,10,10,06,10.30
2015,12,10,10,07,15.40
2015,12,10,10,08,16.30
2015,12,10,10,09,15.40
2015,12,10,10,10,11.50
2015,12,10,10,11,19.90
2015,12,10,10,12,20.30
2015,12,10,10,13,15.30
2015,12,10,10,14,17.70
2015,12,10,10,15,11.90
2015,12,10,10,16,12.20
2015,12,10,10,17,15.40
2015,12,10,10,18,15.40
2015,12,10,10,19,25.50
2015,12,10,10,20,16.90
2015,12,10,10,21,15.70
2015,12,10,10,22,11.60
2015,12,10,10,23,11.00
2015,12,10,10,24,10.80
2015,12,10,10,25,19.30
2015,12,10,10,26,11.40
2015,12,10,10,27,18.70
2015,12,10,10,28,10.10
2015,12,10,10,29,16.60
2015,12,10,10,30,18.00
2015,12,10,10,31,8.80
2015,12,10,10,32,4.60
2015,12,10,10,33,11.60
2015,12,10,10,34,13.30
2015,12,10,10,35,13.00
2015,12,10,10,36,12.90
2015,12,10,10,37,19.90
2015,12,10,10,38,11.30
2015,12,10,10,39,7.60
2015,12,10,10,40,7.60
2015,12,10,10,41,8.60
2015,12,10,10,42,6.50
2015,12,10,10,43,9.20
2015,12,10,10,44,9.20
2015,12,10,10,45,13.70
2015,12,10,10,46,12.20
2015,12,10,10,47,6.20
2015,12,10,10,48,4.50
2015,12,10,10,49,12.20
2015,12,10,10,50,11.00
2015,12,10,10,51,7.60
2015,12,10,10,52,4.90
2015,12,10,10,53,9.10
2015,12,10,10,54,10.40
2015,12,10,10,55,6.80
2015,12,10,10,56,9.10
2015,12,10,10,57,13.60
2015,12,10,10,58,6.50
2015,12,10,10,59,7.50
2015,12,10,11,00,12.70
2015,12,10,11,01,9.40
2015,12,10,11,02,11.20
2015,12,10,11,03,11.00
2015,12,10,11,04,12.80
2015,12,10,11,05,14.10
2015,12,10,11,06,14.30
2015,12,10,11,07,11.40
2015,12,10,11,08,14.10
2015,12,10,11,09,13.90
2015,12,10,11,10,15.10
2015,12,10,11,11,13.90
2015,12,10,11,12,7.80
2015,12,10,11,13,10.80
2015,12,10,11,14,12.80
2015,12,10,11,15,9.10
2015,12,10,11,16,11.70
2015,12,10,11,17,7.20
2015,12,10,11,18,12.80
2015,12,10,11,19,7.70
2015,12,10,11,20,10.10
2015,12,10,11,21,10.10
2015,12,10,11,22,16.40
2015,12,10,11,23,19.00
2015,12,10,11,24,17.10
2015,12,10,11,25,23.20
2015,12,10,11,26,17.50
2015,12,10,11,27,15.70
2015,12,10,11,28,13.80
2015,12,10,11,29,11.30
2015,12,10,11,30,14.20
2015,12,10,11,31,13.60
2015,12,10,11,32,13.90
2015,12,10,11,33,16.40
2015,12,10,11,34,22.10
2015,12,10,11,35,12.10
2015,12,10,11,36,16.80
2015,12,10,11,37,21.20
2015,12,10,11,38,15.80
2015,12,10,11,39,11.70
2015,12,10,11,40,18.50
2015,12,10,11,41,21.10
2015,12,10,11,42,25.20
2015,12,10,11,43,23.50
2015,12,10,11,44,20.50
2015,12,10,11,45,15.00
2015,12,10,11,46,21.40
2015,12,10,11,47,17.00
2015,12,10,11,48,18.30
2015,12,10,11,49,19.40
2015,12,10,11,50,14.50
2015,12,10,11,51,23.10
2015,12,10,11,52,21.90
2015,12,10,11,53,18.80
2015,12,10,11,54,21.20
2015,12,10,11,55,20.00
2015,12,10,11,56,22.10
2015,12,10,11,57,24.70
2015,12,10,11,58,16.10
2015,12,10,11,59,22.80
2015,12,10,12,00,27.10
2015,12,10,12,01,23.00
2015,12,10,12,02,11.00
2015,12,10,12,03,14.80
2015,12,10,12,04,17.70
2015,12,10,12,05,9.40
2015,12,10,12,06,16.20
2015,12,10,12,07,19.60
2015,12,10,12,08,16.60
2015,12,10,12,09,16.70
2015,12,10,12,10,22.30
2015,12,10,12,11,12.80
2015,12,10,12,12,18.10
2015,12,10,12,13,18.80
2015,12,10,12,14,14.40
2015,12,10,12,15,22.70
2015,12,10,12,16,20.60
2015,12,10,12,17,15.70
2015,12,10,12,18,20.30
2015,12,10,12,19,18.30
2015,12,10,12,20,21.50
2015,12,10,12,21,12.60
2015,12,10,12,22,17.20
2015,12,10,12,23,16.20
2015,12,10,12,24,21.00
2015,12,10,12,25,15.90
2015,12,10,12,26,21.50
2015,12,10,12,27,27.10
2015,12,10,12,28,16.60
2015,12,10,12,29,18.00
2015,12,10,12,30,15.00
2015,12,10,12,31,16.00
2015,12,10,12,32,12.80
2015,12,10,12,33,20.30
2015,12,10,12,34,16.60
2015,12,10,12,35,17.30
2015,12,10,12,36,13.20
2015,12,10,12,37,16.10
2015,12,10,12,38,12.80
2015,12,10,12,39,8.90
2015,12,10,12,40,15.00
2015,12,10,12,41,20.00
2015,12,10,12,42,23.90
2015,12,10,12,43,23.80
2015,12,10,12,44,24.00
2015,12,10,12,45,21.40
2015,12,10,12,46,19.70
2015,12,10,12,47,32.70
2015,12,10,12,48,19.70
2015,12,10,12,49,18.50
2015,12,10,12,50,13.70
2015,12,10,12,51,24.30
2015,12,10,12,52,28.00
2015,12,10,12,53,19.80
2015,12,10,12,54,23.10
2015,12,10,12,55,18.70
2015,12,10,12,56,22.20
2015,12,10,12,57,22.10
2015,12,10,12,58,16.90
2015,12,10,12,59,21.70
2015,12,10,13,00,16.70
2015,12,10,13,01,23.60
2015,12,10,13,02,14.50
2015,12,10,13,03,14.90
2015,12,10,13,04,17.70
2015,12,10,13,05,15.90
2015,12,10,13,06,21.20
2015,12,10,13,07,17.80
2015,12,10,13,08,15.50
2015,12,10,13,09,14.50
2015,12,10,13,10,12.50
2015,12,10,13,11,24.00
2015,12,10,13,12,13.70
2015,12,10,13,13,18.00
2015,12,10,13,14,21.60
2015,12,10,13,15,20.80
2015,12,10,13,16,15.00
2015,12,10,13,17,18.80
2015,12,10,13,18,22.70
2015,12,10,13,19,22.80
2015,12,10,13,20,18.90
2015,12,10,13,21,14.50
2015,12,10,13,22,24.10
2015,12,10,13,23,19.30
2015,12,10,13,24,13.60
2015,12,10,13,25,15.30
2015,12,10,13,26,15.70
2015,12,10,13,27,16.00
2015,12,10,13,28,19.70
2015,12,10,13,29,22.00
2015,12,10,13,30,20.60
2015,12,10,13,31,16.90
2015,12,10,13,32,13.70
2015,12,10,13,33,12.30
2015,12,10,13,34,13.20
2015,12,10,13,35,14.90
2015,12,10,13,36,19.40
2015,12,10,13,37,16.50
2015,12,10,13,38,13.80
2015,12,10,13,39,16.40
2015,12,10,13,40,19.10
2015,12,10,13,41,24.80
2015,12,10,13,42,22.00
2015,12,10,13,43,22.80
2015,12,10,13,44,17.30
2015,12,10,13,45,19.90
2015,12,10,13,46,19.70
2015,12,10,13,47,20.10
2015,12,10,13,48,20.30
2015,12,10,13,49,17.90
2015,12,10,13,50,24.70
2015,12,10,13,51,22.50
2015,12,10,13,52,18.80
2015,12,10,13,53,19.60
2015,12,10,13,54,23.80
2015,12,10,13,55,21.20
2015,12,10,13,56,17.70
2015,12,10,13,57,22.80
2015,12,10,13,58,30.00
2015,12,10,13,59,28.50
2015,12,10,14,00,26.00
2015,12,10,14,01,24.30
2015,12,10,14,02,17.60
2015,12,10,14,03,14.20
2015,12,10,14,04,20.00
2015,12,10,14,05,21.20
2015,12,10,14,06,25.30
2015,12,10,14,07,20.00
2015,12,10,14,08,20.20
2015,12,10,14,09,21.40
2015,12,10,14,10,20.60
2015,12,10,14,11,17.80
2015,12,10,14,12,16.50
2015,12,10,14,13,16.30
2015,12,10,14,14,18.00
2015,12,10,14,15,14.80
2015,12,10,14,16,10.50
2015,12,10,14,17,13.90
2015,12,10,14,18,14.20
2015,12,10,14,19,12.80
2015,12,10,14,20,14.20
2015,12,10,14,21,11.50
2015,12,10,14,22,14.60
2015,12,10,14,23,19.40
2015,12,10,14,24,16.30
2015,12,10,14,25,18.30
2015,12,10,14,26,17.30
2015,12,10,14,27,21.00
2015,12,10,14,28,15.60
2015,12,10,14,29,17.20
2015,12,10,14,30,23.70
2015,12,10,14,31,20.00
2015,12,10,14,32,21.30
2015,12,10,14,33,27.20
2015,12,10,14,34,15.90
2015,12,10,14,35,22.20
2015,12,10,14,36,21.10
2015,12,10,14,37,19.00
2015,12,10,14,38,21.00
2015,12,10,14,39,21.50
2015,12,10,14,40,18.20
2015,12,10,14,41,18.10
2015,12,10,14,42,16.50
2015,12,10,14,43,17.60
2015,12,10,14,44,17.90
2015,12,10,14,45,22.60
2015,12,10,14,46,16.30
2015,12,10,14,47,22.30
2015,12,10,14,48,15.40
2015,12,10,14,49,25.80
2015,12,10,14,50,21.10
2015,12,10,14,51,19.20
2015,12,10,14,52,21.60
2015,12,10,14,53,20.20
2015,12,10,14,54,14.00
2015,12,10,14,55,14.70
2015,12,10,14,56,14.70
2015,12,10,14,57,20.40
2015,12,10,14,58,18.30
2015,12,10,14,59,14.40
2015,12,10,15,00,19.90
2015,12,10,15,01,18.70
2015,12,10,15,02,19.30
2015,12,10,15,03,13.40
2015,12,10,15,04,12.80
2015,12,10,15,05,17.40
2015,12,10,15,06,17.10
2015,12,10,15,07,18.60
2015,12,10,15,08,19.20
2015,12,10,15,09,22.00
2015,12,10,15,10,16.70
2015,12,10,15,11,12.20
2015,12,10,15,12,23.20
2015,12,10,15,13,17.50
2015,12,10,15,14,9.40
2015,12,10,15,15,17.70
2015,12,10,15,16,21.80
2015,12,10,15,17,13.70
2015,12,10,15,18,16.20
2015,12,10,15,19,12.50
2015,12,10,15,20,15.30
2015,12,10,15,21,18.60
2015,12,10,15,22,23.70
2015,12,10,15,23,16.60
2015,12,10,15,24,18.70
2015,12,10,15,25,15.50
2015,12,10,15,26,20.40
2015,12,10,15,27,19.70
2015,12,10,15,28,20.00
2015,12,10,15,29,19.50
2015,12,10,15,30,18.10
2015,12,10,15,31,12.30
2015,12,10,15,32,21.30
2015,12,10,15,33,17.00
2015,12,10,15,34,11.30
2015,12,10,15,35,11.10
2015,12,10,15,36,12.50
2015,12,10,15,37,17.00
2015,12,10,15,38,16.00
2015,12,10,15,39,15.50
2015,12,10,15,40,15.90
2015,12,10,15,41,11.70
2015,12,10,15,42,6.40
2015,12,10,15,43,15.10
2015,12,10,15,44,15.20
2015,12,10,15,45,14.00
2015,12,10,15,46,16.50
2015,12,10,15,47,15.50
2015,12,10,15,48,22.50
2015,12,10,15,49,14.80
2015,12,10,15,50,9.40
2015,12,10,15,51,12.30
2015,12,10,15,52,10.80
2015,12,10,15,53,13.50
2015,12,10,15,54,19.80
2015,12,10,15,55,16.80
2015,12,10,15,56,20.40
2015,12,10,15,57,20.00
2015,12,10,15,58,19.70
2015,12,10,15,59,17.20
2015,12,10,16,00,19.60
2015,12,10,16,01,19.60
2015,12,10,16,02,20.40
2015,12,10,16,03,21.10
2015,12,10,16,04,12.00
2015,12,10,16,05,20.10
2015,12,10,16,06,19.20
2015,12,10,16,07,16.50
2015,12,10,16,08,14.80
2015,12,10,16,09,11.70
2015,12,10,16,10,16.20
2015,12,10,16,11,13.40
2015,12,10,16,12,19.10
2015,12,10,16,13,17.00
2015,12,10,16,14,16.60
2015,12,10,16,15,11.50
2015,12,10,16,16,18.00
2015,12,10,16,17,12.30
2015,12,10,16,18,15.20
2015,12,10,16,19,15.40
2015,12,10,16,20,18.10
2015,12,10,16,21,15.10
2015,12,10,16,22,12.70
2015,12,10,16,23,10.40
2015,12,10,16,24,14.70
2015,12,10,16,25,14.40
2015,12,10,16,26,15.40
2015,12,10,16,27,15.50
2015,12,10,16,28,15.60
2015,12,10,16,29,10.60
2015,12,10,16,30,13.00
2015,12,10,16,31,15.50
2015,12,10,16,32,15.60
2015,12,10,16,33,8.70
2015,12,10,16,34,14.30
2015,12,10,16,35,12.80
2015,12,10,16,36,12.50
2015,12,10,16,37,12.50
2015,12,10,16,38,17.40
2015,12,10,16,39,15.40
2015,12,10,16,40,13.50
2015,12,10,16,41,13.70
2015,12,10,16,42,15.60
2015,12,10,16,43,23.10
2015,12,10,16,44,16.90
2015,12,10,16,45,13.60
2015,12,10,16,46,11.70
2015,12,10,16,47,13.10
2015,12,10,16,48,18.50
2015,12,10,16,49,18.10
2015,12,10,16,50,22.30
2015,12,10,16,51,13.60
2015,12,10,16,52,17.80
2015,12,10,16,53,17.20
2015,12,10,16,54,17.10
2015,12,10,16,55,14.80
2015,12,10,16,56,14.70
2015,12,10,16,57,15.20
2015,12,10,16,58,16.20
2015,12,10,16,59,12.60
2015,12,10,17,00,14.40
2015,12,10,17,01,18.40
2015,12,10,17,02,18.00
2015,12,10,17,03,19.40
2015,12,10,17,04,19.60
2015,12,10,17,05,11.90
2015,12,10,17,06,18.60
2015,12,10,17,07,12.80
2015,12,10,17,08,15.60
2015,12,10,17,09,14.30
2015,12,10,17,10,13.50
2015,12,10,17,11,13.50
2015,12,10,17,12,13.20
2015,12,10,17,13,11.80
2015,12,10,17,14,11.00
2015,12,10,17,15,13.20
2015,12,10,17,16,19.00
2015,12,10,17,17,15.70
2015,12,10,17,18,20.00
2015,12,10,17,19,16.40
2015,12,10,17,20,13.60
2015,12,10,17,21,12.50
2015,12,10,17,22,10.20
2015,12,10,17,23,8.40
2015,12,10,17,24,8.00
2015,12,10,17,25,8.80
2015,12,10,17,26,11.60
2015,12,10,17,27,13.10
2015,12,10,17,28,11.10
2015,12,10,17,29,11.90
2015,12,10,17,30,9.30
2015,12,10,17,31,11.30
2015,12,10,17,32,12.60
2015,12,10,17,33,12.80
2015,12,10,17,34,11.00
2015,12,10,17,35,9.70
2015,12,10,17,36,8.10